This demonstration page uses our WeatherBlox Daily Observations layout. Learn more.

Left ArrowRight Arrow

34.16533, -84.80231

Hourly Observations for August 4, 2020

Temp ( °F °C ) Dew Point ( °F °C ) Humidity (%) Winds ( mph kmh ) Pressure ( in mb ) Visibility ( mi km ) Precip ( " mm )
12:53 am 00:53 Mostly Cloudy 73 22.8 68 20 84 84 Calm 29.93 1014 10 16 0.00 0.00
1:53 am 01:53 Mostly Clear 71 21.7 67 19.4 87 87 Calm 29.92 1013 10 16 0.00 0.00
2:14 am 02:14 Mostly Cloudy 72 22.2 67 19.4 84 84 E 3 6 29.94 1014 10 16 0.00 0.00
2:53 am 02:53 Cloudy 72 22.2 68 20 87 87 Calm 29.91 1013 10 16 0.00 0.00
3:53 am 03:53 Cloudy 73 22.8 68 20 84 84 Calm 29.91 1013 10 16 0.00 0.00
4:53 am 04:53 Cloudy 73 22.8 69 20.6 87 87 Calm 29.91 1013 10 16 0.00 0.00
6:30 am 06:30 Mostly Clear 71 21.7 68 20 90 90 Calm 29.95 1014 10 16 0.00 0.00
6:53 am 06:53 Clear 70 21.1 67 19.4 90 90 Calm 29.93 1014 8 13 0.00 0.00
7:53 am 07:53 Sunny 72 22.2 69 20.6 91 91 Calm 29.94 1014 10 16 0.00 0.00
8:53 am 08:53 Sunny 76 24.4 68 20 77 77 Calm 29.96 1015 10 16 0.00 0.00
9:53 am 09:53 Sunny 79 26.1 68 20 69 69 Calm 29.96 1015 10 16 0.00 0.00
10:53 am 10:53 Sunny 83 28.3 67 19.4 59 59 VRB 3 6 29.97 1015 10 16 0.00 0.00
11:53 am 11:53 Sunny 87 30.6 66 18.9 50 50 VRB 5 7 29.97 1015 10 16 0.00 0.00
12:53 pm 12:53 Mostly Sunny 89 31.7 67 19.4 48 48 undefined N/A 29.94 1014 10 16 0.00 0.00
1:53 pm 13:53 Cloudy with Light Rain 80 26.7 70 21.1 71 71 Calm 29.96 1015 4 6 0.02 0.51
2:53 pm 14:53 Sunny 89 31.7 67 19.4 48 48 VRB 3 6 29.93 1013 10 16 0.00 0.00
3:53 pm 15:53 Mostly Sunny 92 33.3 65 18.3 41 41 VRB 6 9 29.91 1013 10 16 0.00 0.00
4:53 pm 16:53 Partly Cloudy 90 32.2 68 20 48 48 VRB 6 9 29.91 1013 10 16 0.00 0.00
5:53 pm 17:53 Sunny 90 32.2 68 20 48 48 VRB 3 6 29.90 1013 10 16 0.00 0.00
6:53 pm 18:53 Partly Cloudy 88 31.1 67 19.4 50 50 Calm 29.90 1013 10 16 0.00 0.00
7:53 pm 19:53 Partly Cloudy 85 29.4 68 20 57 57 NE 5 7 29.92 1013 10 16 0.00 0.00
8:53 pm 20:53 Clear 81 27.2 70 21.1 69 69 Calm 29.93 1014 10 16 0.00 0.00
9:53 pm 21:53 Cloudy 79 26.1 70 21.1 74 74 N 7 11 29.96 1015 9 14 0.00 0.00
10:53 pm 22:53 Mostly Clear 77 25 70 21.1 79 79 Calm 29.98 1015 10 16 0.00 0.00
11:53 pm 23:53 Mostly Clear 75 23.9 68 20 79 79 NNE 3 6 29.98 1015 10 16 0.00 0.00

Powered by AerisWeather